Regional Weather Roundup
Issued by NWS

Home | Current Version | Previous Version | Text Only | Print | Product List | Glossary On
Versions: 1 2 3 4 5 6 7 8 9 10 11 12 13 14 15 16 17 18 19 20 21 22 23 24 25 26 27 28 29 30 31 32 33 34 35 36 37 38 39 40 41 42 43 44 45 46 47 48 49 50
000
ASUS43 KLSX 290107
RWRMO

WEATHER SUMMARY FOR MISSOURI
NATIONAL WEATHER SERVICE SPRINGFIELD MO
700 PM CST FRI NOV 28 2014

NOTE: "FAIR" INDICATES FEW OR NO CLOUDS BELOW 12,000 FEET WITH NO
       SIGNIFICANT WEATHER AND/OR OBSTRUCTIONS TO VISIBILITY.
       CURRENT SKY AND/OR WEATHER CONDITIONS ARE NOT AVAILABLE FOR
       CHILLICOTHE AND FARMINGTON.

MOZ001>031-035>038-043-044-053-054-290200-
...NORTHERN AND WESTERN MISSOURI...

CITY           SKY/WX    TMP DP  RH WIND       PRES   REMARKS
KANSAS CTY INT MOCLDY    53  35  50 S18       29.76F
KANSAS C DTWN  CLEAR     55  35  47 S12       29.77F
LEE`S SUMMIT   PTCLDY    52  34  50 SW12G22   29.80F
ST JOSEPH      MOCLDY    45  33  63 S7        29.74F
CHILLICOTHE      N/A     47  33  58 S5        29.79F
KIRKSVILLE     CLEAR     39  32  76 SE7       29.80F

$$
MOZ066>068-077>081-088>096-101>105-290200-
...SOUTHWEST MISSOURI...

CITY           SKY/WX    TMP DP  RH WIND       PRES   REMARKS
SPRINGFIELD    CLEAR     53  35  50 S13       29.89R
JOPLIN         PTCLDY    57  38  48 S16       29.89R

$$
MOZ032>034-039>042-045>050-055>058-069>072-290200-
...CENTRAL MISSOURI...

CITY           SKY/WX    TMP DP  RH WIND       PRES   REMARKS
COLUMBIA       CLEAR     48  34  58 S10       29.85S
JEFFERSON CITY CLEAR     50  33  52 E8        29.87S
ROLLA          PTCLDY    48  33  56 S14       29.87F
SEDALIA        PTCLDY    50  36  58 S8        29.84F
WHITEMAN AFB   PTCLDY    53  36  53 SW15      29.81F
WARRENSBURG    PTCLDY    50  34  53 S8        29.81F
OSAGE BEACH    CLEAR     54  34  47 S10       29.88R

$$
MOZ051-052-059>065-290200-
...EAST CENTRAL MISSOURI...

CITY           SKY/WX    TMP DP  RH WIND       PRES   REMARKS
ST LOUIS INTL  PTCLDY    47  33  58 S13       29.93F
SPIRIT OF STL  PTCLDY    47  32  56 S7        29.91F
ST CHARLES     PTCLDY    41  34  76 SE10      29.92F

$$
MOZ072>076-082>087-097>100-106>115-290200-
...SOUTH CENTRAL AND SOUTHEAST MISSOURI...

CITY           SKY/WX    TMP DP  RH WIND       PRES   REMARKS
CAPE GIRARDEAU PTCLDY    45  32  60 S13       30.05F
FARMINGTON     PTCLDY    43  34  70 S12G18    29.97F
POPLAR BLUFF   PTCLDY    43  32  65 S8        30.04S
WEST PLAINS    CLEAR     47  32  56 S10G20    29.98F

$$


USA.gov is the U.S. government's official web portal to all federal, state and local government web resources and services.